Location: Sungai Dangang
(2.7500°N, 113.8333°E)
Time: 20:01:34
(UTC+00:00)

ARIANE 3 DEB - Pass Details

Date: 16 May 2021
Orbit: 274 x 4689 km, 6.8° (Epoch: 19 June)

Event Time Altitude Azimuth Distance (km) Brightness Sun altitude
Exits shadow 21:14:05 21° 234° (SW) 1,807 4.8 -14.8°
Maximum altitude 21:16:54 33° 185° (S) 1,042 4.0 -14.2°
Drops below altitude 10° 21:19:59 10° 117° (ESE) 1,536 5.7 -13.4°
Sets 21:21:40 0° 106° (ESE) 2,185 6.8 -13.0°
